Previsão horária em Thimphu

Hoje, 23 Junho, Quarta-feira

Tempo Temperatura Precipitação Vento Pressão Humidade
00:00 +12°C° 0 mm 0 m/s 527 mmHg 94%
01:00 +12°C° 0 mm 0 m/s 526 mmHg 94%
02:00 +12°C° 0 mm 0 m/s 526 mmHg 94%
03:00 +12°C° 0 mm 0 m/s 526 mmHg 95%
04:00 +12°C° 0 mm 0 m/s 526 mmHg 94%
05:00 +12°C° 0 mm 0 m/s 526 mmHg 94%
06:00 +12°C° 0 mm 0 m/s 526 mmHg 93%
07:00 +15°C° 0.1 mm 1 m/s 527 mmHg 87%
08:00 +16°C° 0.1 mm 1 m/s 528 mmHg 80%
09:00 +19°C° 0.1 mm 1 m/s 529 mmHg 73%
10:00 +18°C° 0.6 mm 2 m/s 529 mmHg 75%
11:00 +18°C° 0.6 mm 2 m/s 528 mmHg 76%
12:00 +18°C° 0.6 mm 2 m/s 528 mmHg 78%
13:00 +18°C° 0.7 mm 2 m/s 528 mmHg 79%
14:00 +18°C° 0.7 mm 2 m/s 528 mmHg 80%
15:00 +18°C° 0.7 mm 2 m/s 527 mmHg 81%
16:00 +17°C° 0.6 mm 2 m/s 527 mmHg 85%
17:00 +16°C° 0.6 mm 1 m/s 527 mmHg 89%
18:00 +15°C° 0.6 mm 1 m/s 526 mmHg 93%
19:00 +14°C° 0.3 mm 1 m/s 526 mmHg 94%
20:00 +14°C° 0.3 mm 1 m/s 526 mmHg 95%
21:00 +12°C° 0.3 mm 0 m/s 526 mmHg 96%
22:00 +12°C° 0.1 mm 0 m/s 526 mmHg 96%
23:00 +12°C° 0.1 mm 0 m/s 526 mmHg 96%

Amanhã, 24 Junho, Quinta-feira

Tempo Temperatura Precipitação Vento Pressão Humidade
00:00 +12°C° 0.1 mm 0 m/s 526 mmHg 96%
01:00 +12°C° 0.2 mm 0 m/s 526 mmHg 96%
02:00 +12°C° 0.2 mm 0 m/s 526 mmHg 96%
03:00 +12°C° 0.2 mm 0 m/s 525 mmHg 97%
04:00 +12°C° 1.9 mm 0 m/s 525 mmHg 97%
05:00 +12°C° 1.9 mm 0 m/s 525 mmHg 97%
06:00 +12°C° 1.9 mm 0 m/s 525 mmHg 98%
07:00 +12°C° 1.5 mm 0 m/s 526 mmHg 96%
08:00 +12°C° 1.5 mm 0 m/s 526 mmHg 95%
09:00 +13°C° 1.5 mm 0 m/s 526 mmHg 94%
10:00 +14°C° 0.3 mm 1 m/s 527 mmHg 92%
11:00 +15°C° 0.3 mm 1 m/s 527 mmHg 90%
12:00 +15°C° 0.3 mm 1 m/s 527 mmHg 88%
13:00 +15°C° 0.2 mm 1 m/s 526 mmHg 87%
14:00 +16°C° 0.2 mm 1 m/s 526 mmHg 86%
15:00 +16°C° 0.2 mm 1 m/s 526 mmHg 84%
16:00 +16°C° 0.2 mm 1 m/s 526 mmHg 86%
17:00 +15°C° 0.2 mm 1 m/s 525 mmHg 87%
18:00 +15°C° 0.2 mm 1 m/s 525 mmHg 89%
19:00 +14°C° 0.1 mm 1 m/s 525 mmHg 91%
20:00 +12°C° 0.1 mm 0 m/s 525 mmHg 93%
21:00 +11°C° 0.1 mm 0 m/s 525 mmHg 95%
22:00 +11°C° 0 mm 0 m/s 525 mmHg 95%
23:00 +11°C° 0 mm 0 m/s 525 mmHg 95%

Depois de amanhã, 25 Junho, Sexta-feira

Tempo Temperatura Precipitação Vento Pressão Humidade
00:00 +11°C° 0 mm 0 m/s 525 mmHg 95%
01:00 +11°C° 0 mm 0 m/s 524 mmHg 95%
02:00 +11°C° 0 mm 0 m/s 524 mmHg 95%
03:00 +11°C° 0 mm 0 m/s 524 mmHg 95%
04:00 +11°C° 0 mm 0 m/s 524 mmHg 94%
05:00 +11°C° 0 mm 0 m/s 524 mmHg 92%
06:00 +12°C° 0 mm 1 m/s 524 mmHg 91%
07:00 +14°C° 0.1 mm 1 m/s 525 mmHg 87%
08:00 +15°C° 0.1 mm 1 m/s 526 mmHg 82%
09:00 +16°C° 0.1 mm 1 m/s 527 mmHg 77%
10:00 +17°C° 0.3 mm 2 m/s 527 mmHg 74%
11:00 +18°C° 0.3 mm 2 m/s 527 mmHg 72%
12:00 +19°C° 0.3 mm 2 m/s 527 mmHg 69%
13:00 +18°C° 0.4 mm 2 m/s 526 mmHg 73%
14:00 +18°C° 0.4 mm 2 m/s 526 mmHg 77%
15:00 +17°C° 0.4 mm 2 m/s 525 mmHg 81%
16:00 +16°C° 0.3 mm 2 m/s 525 mmHg 84%
17:00 +16°C° 0.3 mm 1 m/s 525 mmHg 87%
18:00 +15°C° 0.3 mm 1 m/s 525 mmHg 90%
19:00 +14°C° 0.2 mm 1 m/s 525 mmHg 91%
20:00 +14°C° 0.2 mm 1 m/s 525 mmHg 93%
21:00 +12°C° 0.2 mm 0 m/s 525 mmHg 95%
22:00 +12°C° 0.1 mm 0 m/s 525 mmHg 95%
23:00 +11°C° 0.1 mm 0 m/s 525 mmHg 95%

26 Junho, Sábado

Tempo Temperatura Precipitação Vento Pressão Humidade
00:00 +11°C° 0.1 mm 0 m/s 525 mmHg 95%
01:00 +11°C° 0.1 mm 0 m/s 525 mmHg 95%
02:00 +11°C° 0.1 mm 0 m/s 524 mmHg 95%
03:00 +11°C° 0.1 mm 0 m/s 524 mmHg 95%
04:00 +11°C° 0 mm 0 m/s 524 mmHg 95%
05:00 +11°C° 0 mm 0 m/s 525 mmHg 94%
06:00 +12°C° 0 mm 1 m/s 525 mmHg 94%
07:00 +13°C° 0.3 mm 1 m/s 526 mmHg 92%
08:00 +13°C° 0.3 mm 1 m/s 526 mmHg 91%
09:00 +14°C° 0.3 mm 1 m/s 527 mmHg 90%
10:00 +14°C° 0.7 mm 1 m/s 527 mmHg 89%
11:00 +14°C° 0.7 mm 1 m/s 527 mmHg 89%
12:00 +14°C° 0.7 mm 1 m/s 527 mmHg 89%
13:00 +15°C° 0.1 mm 1 m/s 527 mmHg 84%
14:00 +16°C° 0.1 mm 1 m/s 527 mmHg 79%
15:00 +18°C° 0.1 mm 1 m/s 527 mmHg 74%
16:00 +18°C° 0.2 mm 1 m/s 527 mmHg 78%
17:00 +16°C° 0.2 mm 1 m/s 526 mmHg 83%
18:00 +15°C° 0.2 mm 1 m/s 526 mmHg 87%
19:00 +14°C° 0.1 mm 1 m/s 526 mmHg 90%
20:00 +12°C° 0.1 mm 0 m/s 526 mmHg 93%
21:00 +12°C° 0.1 mm 0 m/s 526 mmHg 95%
22:00 +11°C° 0 mm 0 m/s 526 mmHg 95%
23:00 +11°C° 0 mm 0 m/s 526 mmHg 94%

27 Junho, Domingo

Tempo Temperatura Precipitação Vento Pressão Humidade
00:00 +11°C° 0 mm 0 m/s 526 mmHg 94%
01:00 +11°C° 0 mm 0 m/s 526 mmHg 93%
02:00 +11°C° 0 mm 0 m/s 525 mmHg 93%
03:00 +11°C° 0 mm 0 m/s 525 mmHg 92%
04:00 +11°C° 0 mm 0 m/s 526 mmHg 91%
05:00 +11°C° 0 mm 0 m/s 526 mmHg 90%
06:00 +11°C° 0 mm 0 m/s 526 mmHg 88%
07:00 +13°C° 0 mm 0 m/s 527 mmHg 81%
08:00 +16°C° 0 mm 1 m/s 528 mmHg 73%
09:00 +19°C° 0 mm 1 m/s 529 mmHg 65%
10:00 +18°C° 0.1 mm 2 m/s 529 mmHg 66%
11:00 +19°C° 0.1 mm 2 m/s 529 mmHg 66%
12:00 +19°C° 0.1 mm 2 m/s 529 mmHg 67%
13:00 +19°C° 0.1 mm 2 m/s 528 mmHg 68%
14:00 +18°C° 0.1 mm 2 m/s 528 mmHg 69%
15:00 +19°C° 0.1 mm 1 m/s 527 mmHg 70%
16:00 +18°C° 0.1 mm 1 m/s 527 mmHg 74%
17:00 +18°C° 0.1 mm 1 m/s 527 mmHg 77%
18:00 +16°C° 0.1 mm 1 m/s 526 mmHg 81%
19:00 +15°C° 0.1 mm 1 m/s 526 mmHg 86%
20:00 +14°C° 0.1 mm 1 m/s 526 mmHg 90%
21:00 +12°C° 0.1 mm 0 m/s 526 mmHg 95%
22:00 +12°C° 0 mm 0 m/s 526 mmHg 95%
23:00 +12°C° 0 mm 0 m/s 526 mmHg 95%

28 Junho, Segunda-feira

Tempo Temperatura Precipitação Vento Pressão Humidade
00:00 +11°C° 0 mm 0 m/s 526 mmHg 94%
01:00 +11°C° 0 mm 0 m/s 526 mmHg 94%
02:00 +11°C° 0 mm 0 m/s 526 mmHg 94%
03:00 +11°C° 0 mm 0 m/s 525 mmHg 93%
04:00 +11°C° 0 mm 0 m/s 525 mmHg 92%
05:00 +12°C° 0 mm 0 m/s 526 mmHg 90%
06:00 +12°C° 0 mm 0 m/s 526 mmHg 88%
07:00 +15°C° 0 mm 1 m/s 526 mmHg 81%
08:00 +16°C° 0 mm 1 m/s 527 mmHg 75%
09:00 +19°C° 0 mm 1 m/s 528 mmHg 68%
10:00 +19°C° 0.1 mm 2 m/s 528 mmHg 67%
11:00 +19°C° 0.1 mm 2 m/s 528 mmHg 67%
12:00 +20°C° 0.1 mm 2 m/s 528 mmHg 66%
13:00 +19°C° 0.3 mm 2 m/s 527 mmHg 72%
14:00 +18°C° 0.3 mm 2 m/s 527 mmHg 78%
15:00 +17°C° 0.3 mm 2 m/s 526 mmHg 84%
16:00 +17°C° 0.4 mm 2 m/s 526 mmHg 88%
17:00 +16°C° 0.4 mm 2 m/s 526 mmHg 91%
18:00 +15°C° 0.4 mm 1 m/s 525 mmHg 95%
19:00 +15°C° 0.3 mm 1 m/s 526 mmHg 96%
20:00 +14°C° 0.3 mm 1 m/s 526 mmHg 97%
21:00 +13°C° 0.3 mm 0 m/s 526 mmHg 98%
22:00 +13°C° 0.1 mm 0 m/s 526 mmHg 98%
23:00 +13°C° 0.1 mm 0 m/s 526 mmHg 98%
Mostrar mais

Necessitamos do seu Consentimento

A Meteoprog e os seus Fornecedores de Serviços podem armazenar e aceder a dados pessoais como cookies, identificadores do dispositivo ou outras tecnologias semelhantes existentes no seu dispositivo e processar estes dados para personalizar conteúdos e anúncios, assim como funcionalidades nas redes sociais e análise de tráfego.

  • Armazenar e/ou aceder a informações no seu dispositivo

    Os cookies, identificadores do dispositivo ou outras informações podem ser armazenados ou acedidos no seu dispositivo, para os fins acima indicados.

  • Anúncios e conteúdos personalizados, medição de anúncios e conteúdos, dados sobre o público-alvo e desenvolvimento de produtos

    Os anúncios e os conteúdos podem ser personalizados com base num perfil. Podem ser adicionados dados adicionais para uma maior personalização dos anúncios e dos conteúdos. A eficácia dos anúncios e dos conteúdos pode ser medida. Podem ser obtidas informações sobre o público que visualizou os anúncios e os conteúdos. Estes dados podem ser usados para desenvolver ou melhorar sistemas, softwares ou a experiência do utilizador.

Ao clicar em "Eu concordo”, permitirá o uso de cookies, identificadores do dispositivo e web beacons mencionados ou outras tecnologias semelhantes. As configurações do navegador do seu dispositivo podem ser alteradas.

Para certos fins, podem ser invocados interesses legítimos ao invés de consentimento. Pode ler mais informação sobre este assunto na nossa Política de Privacidade e Cookies.